Temperature
22 22 21 21 21 21 21 20 20 20 20 20 20 19 19 19 19 19 18 18 18 18 17 17 17 17 17 17 17 17 17 17 16 15 15 15 14 14 14 14 14 13 14
22 22 22 21 21 21 21 20 20 20 20 20 19 19 19 19 19 18 18 18 18 17 17 17 17 17 17 17 17 17 16 16 16 15 15 14 14 14 14 14 13 13 13
22 22 22 21 21 21 20 20 20 20 20 19 19 19 19 19 18 18 18 18 17 17 17 17 17 17 17 16 16 16 16 16 16 15 15 14 14 14 14 13 13 13 13
23 22 22 22 21 21 20 20 20 20 19 19 19 19 19 18 18 18 18 17 17 17 17 17 17 17 16 16 16 16 16 16 16 15 15 14 14 14 13 13 13 13 13
23 22 22 22 21 21 20 20 20 20 19 19 19 19 18 18 18 18 18 17 17 17 17 17 17 16 16 16 16 16 16 15 15 15 15 14 14 14 13 13 13 13 12
22 22 22 21 21 21 21 20 20 20 19 19 19 19 18 18 18 18 18 17 17 17 17 16 16 16 16 16 16 16 16 15 15 15 15 14 14 14 13 13 13 13 12
22 22 21 21 21 21 20 20 20 20 19 19 19 19 18 19 18 18 18 17 17 17 17 16 16 16 16 16 16 16 15 15 15 15 15 15 14 14 14 13 13 13 13
22 21 21 21 20 20 20 20 20 19 19 19 19 18 18 18 18 18 17 17 17 17 16 16 16 16 16 16 15 15 15 15 15 15 15 15 14 14 14 14 13 13 13
21 21 21 20 20 20 20 19 19 19 19 19 18 18 18 18 18 18 17 17 17 16 16 16 16 16 16 16 15 15 15 15 15 15 15 14 14 14 14 13 13 13 12
21 21 20 20 20 20 19 19 19 18 18 18 18 18 18 18 18 18 17 17 16 16 16 16 16 16 16 16 15 15 15 15 14 14 14 14 14 14 14 13 13 13 12
20 20 20 20 19 19 19 19 18 18 18 18 17 17 17 17 17 17 17 17 16 16 16 15 15 15 15 15 15 15 15 15 14 14 14 14 14 14 13 13 13 13 13
20 19 19 19 19 19 19 18 18 18 17 17 17 17 17 17 16 17 16 16 16 16 15 15 15 15 15 15 15 15 14 14 14 14 14 14 14 14 14 13 13 13 13
19 19 19 19 19 18 18 18 17 17 17 17 17 16 16 16 16 16 16 16 16 15 15 15 15 15 15 15 15 14 14 14 14 13 13 13 13 13 13 13 13 12 12
18 18 18 18 18 18 18 17 17 17 16 16 16 16 16 16 16 16 16 15 15 15 15 15 14 14 14 14 14 14 14 14 13 13 13 13 13 13 13 13 13 12 12
18 18 18 18 18 17 17 17 17 17 16 16 16 16 16 16 15 15 15 15 15 15 14 14 14 14 14 13 14 14 14 13 13 13 13 13 13 13 12 12 12 12 12
17 17 17 17 17 17 17 16 16 16 16 16 16 16 16 16 15 15 15 15 14 14 14 14 13 13 13 13 13 13 13 13 13 13 13 12 12 12 12 12 12 12 12
17 17 17 17 16 16 16 16 16 16 16 16 16 16 15 15 15 15 15 14 14 14 13 13 13 13 13 13 13 13 13 13 13 12 12 12 12 12 12 12 12 12 11
16 16 16 16 16 16 16 16 16 15 15 15 15 15 15 15 15 14 14 14 13 13 13 13 13 13 13 13 13 13 12 12 12 12 12 12 12 12 12 12 11 11 11
16 16 16 16 16 15 15 15 15 15 15 15 15 15 14 14 14 14 14 13 13 13 13 13 13 13 13 12 12 12 12 12 12 12 11 11 11 11 11 11 11 11 11
15 15 15 15 15 15 15 15 15 15 15 14 14 14 14 14 14 13 13 13 13 12 12 12 12 12 12 12 12 12 12 12 12 12 11 11 11 11 11 11 11 11 11
15 15 15 15 15 15 15 15 15 14 14 14 14 14 14 14 13 13 13 13 13 12 12 12 12 12 12 11 11 11 11 11 11 11 11 11 11 11 11 11 11 11 11
14 14 14 15 14 14 14 14 14 14 14 13 13 13 13 13 13 13 12 12 12 12 12 12 11 11 11 11 11 11 11 11 11 11 11 11 11 10 10 10 10 10 10
14 14 14 14 14 14 14 14 14 13 13 13 13 13 13 13 12 12 12 12 12 11 11 11 11 11 11 11 11 11 11 11 11 11 11 10 10 10 10 10 10 10 10
13 14 14 14 13 13 13 13 13 13 13 13 12 12 12 12 12 12 12 11 11 11 11 10 10 10 10 10 10 10 10 10 10 10 10 10 10 10 10 10 9 9 9
13 13 13 13 13 13 13 13 12 12 12 12 12 12 11 11 11 11 11 11 11 10 10 10 10 10 10 10 10 10 10 10 10 10 10 9 9 9 9 9 9 9 9
13 13 13 13 13 12 12 12 12 12 12 11 11 11 11 11 11 10 10 10 10 10 10 10 10 10 9 9 10 10 10 10 10 9 9 9 9 9 9 8 8 8 8
Wind_Speed
9 8 6 7 7 6 5 4 4 3 3 3 4 4 4 4 4 3 4 3 3 3 3 2 2 2 2 2 1 1 1 2 2 2 3 4 4 5 6 7 8 7 6
9 8 7 6 6 6 6 5 5 5 5 4 4 4 5 4 4 4 5 3 3 3 3 2 2 2 1 2 1 1 1 2 4 4 3 3 3 5 5 4 6 6 7
10 9 8 7 7 6 6 5 5 5 5 4 5 4 4 4 4 4 4 3 3 3 2 2 2 2 2 1 1 1 1 2 3 5 4 3 3 4 5 3 3 4 6
9 9 8 8 7 7 6 5 5 5 5 4 4 4 4 4 4 3 3 3 3 3 2 1 1 2 2 2 2 1 1 1 3 4 5 4 3 4 4 3 3 2 3
9 9 8 7 6 5 5 5 4 5 5 4 4 4 4 4 4 3 3 4 3 3 3 3 2 2 2 1 1 1 2 2 3 4 4 4 4 4 4 4 4 3 3
7 7 6 7 6 6 5 4 4 4 4 4 5 4 4 4 3 3 2 2 2 3 3 2 3 4 4 5 4 3 3 3 3 3 3 5 6 5 5 5 4 4 3
6 6 6 6 5 5 5 5 5 4 4 4 4 4 4 3 4 4 3 2 2 2 2 2 4 3 4 4 5 6 4 5 5 4 4 4 5 6 6 6 5 5 3
5 5 5 5 5 5 5 5 5 4 4 4 4 4 3 4 6 6 4 4 3 3 3 3 3 2 3 3 3 4 4 4 5 5 4 5 5 4 6 6 6 4 3
5 4 4 4 5 5 5 4 4 4 4 4 4 3 4 3 5 6 5 3 3 4 4 3 3 3 3 3 3 4 4 4 4 4 5 5 6 7 5 4 4 4 4
3 3 3 4 4 5 5 4 4 4 4 4 4 4 4 4 6 6 5 3 4 4 3 3 3 2 3 4 3 3 4 4 3 4 4 5 5 6 8 6 5 5 4
1 2 3 3 3 3 3 3 3 4 4 4 4 4 4 5 6 7 7 4 4 4 4 3 3 4 5 5 5 4 4 3 3 4 4 4 4 5 6 6 5 5 5
1 1 1 2 2 2 2 2 3 4 5 4 4 4 3 4 5 6 8 6 5 3 3 2 3 6 7 7 6 5 5 4 3 3 4 4 5 5 6 6 6 6 5
1 1 1 2 2 2 3 3 3 3 4 3 3 4 3 3 3 6 7 7 6 4 3 2 2 6 6 6 8 8 6 5 5 5 5 5 5 5 5 5 5 5 6
1 1 1 2 2 2 1 1 2 2 3 3 3 3 3 3 3 3 4 4 5 5 4 3 4 6 5 5 4 5 5 5 5 5 4 4 3 4 4 4 5 5 5
1 1 2 2 2 2 1 0 1 1 2 4 3 3 3 4 4 4 4 4 4 4 4 3 3 3 4 5 5 5 5 5 5 4 4 4 4 4 4 4 4 4 5
1 2 2 2 2 2 2 0 3 1 2 3 4 4 3 3 3 3 3 4 4 5 4 5 5 5 5 5 5 5 5 5 5 4 4 4 4 4 4 4 4 5 6
2 2 3 2 2 2 2 3 2 2 2 1 3 3 4 4 4 4 4 4 5 5 5 6 6 6 5 5 5 5 5 5 4 5 5 4 4 4 4 4 5 5 6
3 3 3 3 3 2 3 3 3 3 3 2 2 5 6 6 5 5 5 3 3 5 6 6 6 5 5 4 4 4 4 4 4 5 4 4 4 4 4 4 4 5 5
3 3 3 3 3 3 3 3 3 3 3 3 2 2 5 5 5 4 4 3 4 5 6 6 5 4 3 3 3 3 3 3 3 4 4 4 4 4 4 4 5 6 6
3 4 4 4 4 4 3 3 3 2 2 2 2 1 2 3 3 3 3 4 5 4 4 4 3 3 3 3 3 3 3 3 3 4 4 4 4 4 5 6 5 5 5
3 2 4 4 4 4 3 3 3 3 2 2 2 1 2 3 3 4 4 4 4 4 3 3 3 3 3 3 3 3 3 2 2 3 3 3 4 4 4 4 5 5 5
4 4 4 4 3 3 3 3 3 3 3 3 2 2 4 3 2 2 2 3 3 3 3 3 4 3 3 3 3 2 2 2 3 3 3 4 4 4 4 4 5 4 5
5 4 3 2 2 3 4 3 2 2 2 2 2 1 1 2 2 2 2 1 2 2 2 2 2 2 2 2 1 1 2 3 3 3 4 4 4 5 5 5 5 5 5
4 4 3 2 2 3 3 2 2 2 2 2 1 1 1 2 2 2 3 2 1 1 1 1 1 1 1 2 2 1 1 2 2 3 4 4 4 4 4 4 5 6 5
4 4 3 2 2 2 2 2 2 2 2 2 2 2 2 3 3 2 2 1 1 1 1 0 0 0 0 1 1 1 1 3 3 3 4 3 4 4 4 4 4 4 4
3 4 3 2 2 2 2 2 2 2 2 2 2 2 2 3 3 3 3 2 1 1 1 1 1 1 2 2 2 0 1 2 3 4 3 3 3 3 3 3 4 4 4
Wind_Direction
185 186 195 184 192 198 201 202 195 197 199 201 201 198 197 197 199 213 238 223 222 230 241 223 239 275 312 307 286 238 189 154 141 127 122 125 124 122 128 132 134 131 130
181 179 189 186 187 195 199 200 198 202 202 203 204 209 213 205 203 211 234 229 225 232 235 227 243 261 265 281 290 283 198 149 144 143 138 138 133 138 140 148 148 148 141
178 180 185 188 190 197 202 201 200 201 203 204 207 210 219 217 210 214 221 226 227 237 241 230 231 248 251 259 257 249 203 147 141 149 156 152 146 153 147 156 156 150 156
177 182 183 187 190 193 196 195 197 199 206 205 210 212 215 220 217 221 217 221 222 224 224 222 241 242 238 240 231 213 182 149 138 149 152 157 154 163 163 171 175 181 168
174 177 179 180 183 186 188 197 194 198 209 205 211 214 218 217 222 219 231 221 221 223 216 210 215 201 196 186 218 184 173 169 167 165 164 168 172 174 185 188 184 179 183
172 175 170 173 179 183 184 194 192 193 204 207 212 214 220 225 185 173 205 239 223 228 226 216 203 198 181 167 165 164 167 188 186 182 192 188 187 188 183 187 185 184 192
168 170 169 176 181 184 188 191 198 198 206 215 214 209 211 198 170 172 192 236 227 230 239 238 246 217 173 186 192 190 189 197 193 197 203 208 198 192 190 195 199 203 206
162 170 175 181 186 187 192 196 202 201 206 212 214 204 209 197 175 182 200 225 234 226 226 231 229 204 211 196 205 195 197 201 209 211 214 218 213 199 199 199 199 201 203
168 181 184 186 188 192 199 204 200 202 208 213 215 210 207 188 183 186 189 219 230 237 234 232 228 204 193 180 199 206 212 220 218 209 202 197 199 202 192 191 196 195 209
170 178 175 186 201 202 198 206 205 205 212 210 212 216 204 184 186 189 194 217 231 234 232 226 217 201 173 181 205 212 220 232 214 202 200 205 207 205 202 202 205 209 210
129 177 183 194 209 205 187 198 204 209 211 215 215 217 205 189 183 193 197 216 234 240 231 219 197 179 180 196 215 225 229 235 231 213 209 208 208 204 205 208 212 214 219
103 169 173 186 224 197 174 203 212 214 215 215 211 219 197 183 179 201 203 216 242 261 260 236 196 186 198 210 221 230 233 232 235 227 217 214 215 214 211 208 210 217 229
125 160 172 184 216 209 197 213 219 217 222 222 223 223 210 194 187 195 201 222 242 250 276 293 235 202 206 218 227 226 221 226 229 227 227 226 223 221 211 202 208 218 230
148 185 191 189 199 202 190 206 216 224 237 238 242 238 226 209 200 203 211 222 237 246 259 262 235 219 221 229 227 224 220 228 232 232 234 235 223 213 214 212 212 211 221
166 232 227 222 207 186 173 269 221 239 234 225 228 228 228 231 226 211 212 218 227 232 232 231 234 227 220 218 220 217 214 219 229 233 236 235 230 220 220 218 214 213 222
253 263 264 240 217 194 173 154 18 244 216 193 209 211 221 204 189 189 206 218 222 207 210 232 233 235 234 226 220 219 215 219 226 229 227 222 223 227 230 226 223 222 228
267 278 287 286 263 237 216 213 225 276 297 254 216 200 202 203 193 196 208 218 220 196 212 230 235 237 239 230 223 224 222 214 218 232 233 228 223 225 227 228 228 229 231
269 269 272 270 273 258 251 247 232 230 242 265 246 215 209 211 211 215 209 192 216 212 228 235 238 239 237 234 229 229 227 218 220 230 232 233 228 228 230 232 231 237 240
270 263 261 272 275 271 265 267 259 239 234 235 250 218 205 214 214 216 191 211 225 228 230 237 238 244 247 240 238 234 231 225 224 227 231 236 236 234 235 236 237 242 241
253 247 251 261 265 263 263 260 261 267 265 251 252 241 175 186 209 203 203 222 234 237 232 240 246 249 252 245 239 236 237 233 235 239 239 240 244 245 247 246 243 243 242
283 268 250 262 266 267 272 274 270 269 273 276 279 259 202 213 215 206 205 216 226 234 239 251 251 251 253 250 244 242 245 248 250 260 258 254 257 257 260 259 255 253 254
281 269 264 269 282 297 294 289 292 290 281 270 269 256 236 248 253 242 229 225 234 237 234 242 251 252 256 260 248 241 243 250 253 256 265 263 260 261 262 259 260 257 255
268 269 276 286 300 295 285 286 288 285 289 289 274 265 259 282 292 292 276 245 239 247 244 247 255 256 277 292 280 220 239 252 255 257 261 262 263 262 259 256 256 258 253
277 281 281 289 283 277 290 314 319 315 312 310 313 309 286 295 297 303 303 299 270 278 287 265 280 2 17 355 3 348 325 323 305 282 273 269 266 265 264 261 256 256 255
293 294 288 290 288 294 309 312 309 307 315 324 322 315 306 303 304 302 292 283 262 256 253 207 304 334 288 273 297 315 4 12 357 326 291 272 271 271 269 272 272 272 265
311 310 320 333 335 334 331 323 310 318 325 324 327 327 310 306 305 303 306 318 303 258 244 225 224 270 289 262 274 345 43 21 352 325 293 269 268 273 272 267 272 272 271
Height
1513 1515 1518 1519 1520 1521 1522 1524 1525 1525 1526 1526 1527 1527 1527 1527 1528 1528 1528 1528 1528 1528 1528 1528 1528 1528 1528 1528 1528 1528 1528 1528 1528 1529 1530 1530 1530 1530 1530 1531 1531 1530 1530
1510 1512 1515 1516 1518 1519 1520 1521 1522 1522 1523 1524 1524 1524 1525 1525 1525 1525 1526 1526 1526 1526 1526 1526 1526 1526 1526 1526 1526 1526 1526 1527 1527 1527 1528 1528 1529 1529 1529 1530 1530 1530 1529
1507 1510 1512 1513 1515 1516 1517 1518 1519 1520 1521 1521 1522 1522 1522 1523 1523 1523 1523 1524 1524 1524 1524 1524 1523 1523 1523 1523 1524 1524 1524 1525 1525 1525 1526 1526 1527 1527 1528 1528 1529 1529 1528
1505 1507 1509 1510 1512 1513 1514 1515 1516 1517 1518 1519 1519 1519 1520 1520 1520 1520 1520 1521 1521 1521 1521 1521 1521 1520 1520 1521 1521 1521 1522 1522 1523 1523 1524 1524 1525 1525 1526 1526 1527 1527 1527
1503 1504 1505 1507 1509 1510 1511 1512 1513 1514 1515 1516 1516 1517 1517 1518 1518 1518 1518 1518 1518 1518 1518 1518 1518 1518 1518 1519 1519 1519 1519 1520 1520 1521 1521 1522 1522 1523 1523 1524 1525 1525 1526
1500 1502 1503 1504 1505 1507 1508 1509 1510 1511 1512 1513 1514 1514 1514 1514 1514 1515 1515 1515 1515 1515 1515 1515 1515 1515 1515 1516 1516 1516 1517 1517 1518 1518 1519 1519 1519 1520 1521 1522 1523 1523 1523
1498 1500 1501 1501 1503 1504 1506 1506 1507 1508 1509 1510 1511 1510 1510 1510 1511 1512 1512 1512 1512 1512 1513 1513 1513 1513 1513 1513 1513 1513 1514 1515 1515 1516 1516 1516 1517 1517 1518 1519 1519 1520 1520
1496 1498 1499 1500 1501 1502 1503 1503 1504 1505 1506 1506 1507 1507 1507 1507 1507 1508 1509 1509 1509 1509 1509 1509 1509 1509 1509 1509 1510 1510 1511 1511 1512 1512 1513 1513 1514 1515 1515 1516 1517 1517 1518
1493 1495 1496 1497 1497 1498 1499 1500 1501 1502 1502 1503 1504 1504 1504 1504 1505 1505 1506 1506 1506 1506 1506 1506 1506 1506 1506 1506 1507 1507 1507 1508 1508 1509 1509 1510 1510 1511 1512 1513 1513 1514 1514
1491 1492 1493 1494 1495 1495 1496 1497 1498 1498 1499 1499 1500 1501 1501 1501 1501 1502 1503 1502 1502 1503 1503 1503 1503 1503 1503 1503 1503 1504 1504 1504 1505 1505 1505 1506 1506 1507 1508 1509 1509 1510 1510
1488 1490 1491 1492 1492 1493 1493 1494 1495 1495 1495 1496 1497 1497 1497 1498 1498 1499 1499 1499 1499 1499 1499 1499 1499 1499 1500 1500 1500 1500 1500 1501 1501 1501 1502 1502 1502 1502 1503 1504 1505 1506 1506
1486 1487 1488 1489 1490 1490 1490 1491 1491 1492 1493 1493 1494 1494 1495 1495 1495 1495 1496 1496 1496 1496 1496 1496 1496 1496 1496 1496 1496 1496 1497 1497 1497 1497 1497 1497 1498 1498 1499 1500 1500 1501 1502
1484 1484 1485 1486 1487 1488 1488 1488 1489 1489 1490 1490 1491 1491 1491 1492 1491 1492 1492 1492 1492 1492 1492 1492 1493 1493 1493 1493 1493 1493 1493 1493 1493 1493 1493 1493 1494 1494 1495 1496 1496 1497 1498
1482 1482 1483 1483 1484 1485 1486 1486 1486 1486 1487 1487 1488 1488 1488 1488 1487 1487 1487 1487 1488 1488 1488 1489 1489 1489 1489 1489 1489 1489 1489 1489 1489 1489 1489 1490 1490 1490 1491 1491 1492 1492 1493
1479 1480 1481 1481 1482 1482 1483 1483 1482 1483 1483 1484 1484 1484 1484 1484 1483 1483 1482 1483 1483 1484 1484 1484 1484 1484 1484 1484 1484 1484 1484 1484 1484 1484 1485 1485 1485 1486 1486 1486 1487 1487 1488
1477 1478 1479 1479 1479 1479 1479 1479 1479 1479 1479 1479 1479 1480 1479 1479 1479 1479 1479 1479 1479 1480 1480 1479 1479 1479 1479 1479 1479 1480 1480 1479 1479 1480 1480 1480 1480 1481 1482 1482 1482 1483 1483
1475 1476 1477 1477 1477 1476 1476 1476 1475 1475 1475 1475 1475 1475 1475 1475 1474 1474 1474 1474 1475 1475 1475 1474 1474 1475 1475 1475 1475 1476 1475 1475 1475 1475 1476 1476 1476 1477 1477 1477 1477 1478 1478
1472 1473 1474 1474 1474 1473 1473 1473 1472 1471 1471 1470 1470 1470 1470 1469 1469 1469 1469 1469 1469 1469 1469 1469 1470 1470 1471 1471 1471 1471 1471 1471 1471 1471 1471 1471 1471 1472 1472 1472 1472 1473 1473
1470 1470 1471 1471 1471 1471 1470 1470 1470 1469 1468 1467 1466 1465 1465 1464 1464 1464 1464 1464 1464 1464 1465 1465 1465 1465 1466 1466 1466 1467 1467 1467 1467 1466 1467 1467 1467 1467 1467 1467 1467 1468 1468
1467 1467 1468 1468 1468 1467 1467 1467 1466 1466 1465 1464 1463 1462 1461 1461 1460 1460 1460 1460 1461 1461 1461 1461 1461 1461 1461 1461 1462 1462 1462 1462 1462 1462 1462 1462 1462 1462 1462 1463 1462 1462 1462
1465 1465 1465 1465 1465 1464 1464 1464 1463 1463 1462 1461 1460 1460 1459 1458 1457 1457 1457 1457 1457 1457 1457 1457 1457 1457 1457 1457 1457 1457 1457 1457 1457 1458 1458 1458 1458 1458 1457 1457 1457 1457 1458
1462 1462 1463 1463 1462 1462 1461 1461 1460 1460 1459 1458 1457 1457 1456 1456 1455 1455 1454 1453 1453 1453 1453 1453 1453 1453 1453 1452 1452 1451 1452 1452 1452 1453 1453 1453 1452 1452 1452 1452 1452 1452 1452
1459 1460 1459 1459 1459 1459 1458 1458 1457 1456 1456 1455 1455 1454 1453 1453 1453 1452 1452 1450 1450 1450 1449 1449 1449 1449 1448 1448 1448 1447 1447 1447 1447 1447 1448 1447 1447 1447 1447 1446 1446 1446 1446
1457 1456 1456 1456 1456 1456 1455 1455 1454 1453 1453 1453 1452 1452 1451 1450 1450 1449 1449 1448 1447 1446 1446 1445 1445 1444 1443 1443 1443 1443 1443 1443 1443 1443 1443 1443 1442 1442 1441 1441 1441 1441 1441
1454 1454 1454 1453 1453 1452 1452 1452 1452 1451 1450 1450 1449 1449 1448 1447 1447 1446 1445 1445 1444 1443 1442 1442 1441 1440 1439 1439 1438 1438 1438 1438 1438 1438 1438 1438 1438 1437 1437 1436 1436 1436 1436
1451 1451 1451 1451 1450 1450 1450 1449 1449 1448 1448 1447 1446 1446 1445 1444 1444 1443 1442 1441 1440 1439 1439 1438 1437 1436 1436 1435 1434 1434 1434 1434 1434 1434 1433 1433 1433 1432 1432 1432 1432 1432 1432